Regional Weather Roundup
Issued by NWS

Home | Current Version | Previous Version | Text Only | Print | Product List | Glossary Off
Versions: 1 2 3 4 5 6 7 8 9 10 11 12 13 14 15 16 17 18 19 20 21 22 23 24 25 26 27 28 29 30 31 32 33 34 35 36 37 38 39 40 41 42 43 44 45 46 47 48 49 50

000
ASUS43 KFSD 241610
RWRSD

WEATHER ROUNDUP FOR SOUTH DAKOTA
NATIONAL WEATHER SERVICE SIOUX FALLS SD
1000 AM CST SAT FEB 24 2018

NOTE: "FAIR" INDICATES FEW OR NO CLOUDS BELOW 12,000 FEET WITH NO
SIGNIFICANT WEATHER AND/OR OBSTRUCTIONS TO VISIBILITY.


SDZ001>005-009-010-012>017-241700-
NORTHWEST AND NORTH CENTRAL SOUTH DAKOTA

CITY           SKY/WX    TMP DP  RH WIND       PRES   REMARKS
BUFFALO          N/A      9   5  84 W7        29.67F WCI  -2
FAITH            N/A      9   7  92 SE7       29.77F WCI  -2
MOBRIDGE       CLOUDY    15  11  83 S8        29.84F WCI   4
$$

SDZ012>016-024>037-041>051-057-063-072>074-241700-
SOUTHWEST AND SOUTH CENTRAL SOUTH DAKOTA

CITY           SKY/WX    TMP DP  RH WIND       PRES   REMARKS
RAPID CTY ARPT MOSUNNY   12   5  73 N16       29.73S WCI  -5
PIERRE         LGT SNOW  13  11  92 SE13      29.84F FOG     WCI  -2
CUSTER         SUNNY     19  12  74 W7        29.62F WCI  10
ELLSWORTH AFB  MOSUNNY   17   8  67 N10       29.72F WCI   5
PHILIP         LGT SNOW  17  16  95 E9        29.78F VSB 3/4 WCI   6
PINE RIDGE     CLOUDY    24  15  68 W15G22    29.73F WCI  11
SPEARFISH        N/A     23   9  54 W13       29.74F WCI  11
WINNER         LGT SNOW  16  12  84 E12       29.81F VSB 1   WCI   3
$$

SDZ004>011-016>023-039-040-241700-
NORTHEAST SOUTH DAKOTA

CITY           SKY/WX    TMP DP  RH WIND       PRES   REMARKS
ABERDEEN       CLOUDY     9   4  80 SE9       29.99F WCI  -4
WATERTOWN      LGT SNOW  15  13  91 SE6       29.96F VSB 1   WCI   6
BROOKINGS      CLOUDY    14  11  87 CALM      29.99F
SISSETON         N/A      8   4  83 SE9       30.01F WCI  -5
$$

SDZ017-020-022-023-036>040-048>070-241700-
SOUTHEAST SOUTH DAKOTA

CITY           SKY/WX    TMP DP  RH WIND       PRES   REMARKS
SIOUX FALLS    SNOW      17  13  84 NE6       29.97F VSB 1/4 WCI   9
HURON          SNOW       9   6  88 E5        29.97F VSB 1/4 WCI   1
CHAMBERLAIN    SNOW      14  13  94 E8        29.88F VSB 1/2 WCI   3
MITCHELL       SNOW      12   9  87 NE7       29.95F VSB 1/2 WCI   1
YANKTON        LGT SNOW  19  18  93 E9        29.93F FOG     WCI   9
$$

ABBREVIATIONS USED IN REMARKS
   TC - TEMPERATURE IN CELSIUS
  WCI - WIND CHILL INDEX
   HX - HEAT INDEX
  VSB - VISIBILITY




USA.gov is the U.S. government's official web portal to all federal, state and local government web resources and services.